Location: *
(48.8667°N, 2.3331°E)
Time: 04:13:40
(UTC+00:00)

SPOT 5 - Pass Details

Date: 09 April 2020
Orbit: 624 x 814 km, 98.3° (Epoch: 01 June)

Event Time Altitude Azimuth Distance (km) Brightness Sun altitude
Exits shadow 22:10:49 34° 282° (WNW) 1,042 3.9 -28.9°
Drops below altitude 10° 22:14:12 10° 330° (NNW) 2,009 6.1 -29.2°
Sets 22:16:33 0° 339° (NNW) 2,928 7.2 -29.4°
